| time (UTC) | temp C | wind direction | speed KPH | gust KPH | rain 1hr cm | rain 24hr cm | rain mn cm | humidity % | barometer mb |
| 20260504040254 | 13 | 195 | 0.0 | 0.0 | 0.00 | 0.05 | 0.00 | 58 | 1009.7 |
| 20260504035754 | 13 | 176 | 0.0 | 0.0 | 0.00 | 0.05 | 0.00 | 58 | 1009.7 |
| 20260504035254 | 13 | 181 | 0.0 | 0.0 | 0.00 | 0.05 | 0.00 | 58 | 1009.7 |
| 20260504034754 | 13 | 171 | 0.0 | 0.0 | 0.00 | 0.05 | 0.00 | 58 | 1009.8 |
| 20260504034253 | 13 | 190 | 0.0 | 0.0 | 0.00 | 0.05 | 0.00 | 58 | 1009.9 |
| 20260504033753 | 13 | 208 | 0.0 | 0.0 | 0.00 | 0.05 | 0.05 | 58 | 1010.0 |
| 20260504033253 | 13 | 176 | 0.0 | 0.0 | 0.00 | 0.05 | 0.05 | 58 | 1009.9 |
| 20260504032752 | 13 | 196 | 0.0 | 0.0 | 0.00 | 0.05 | 0.05 | 58 | 1010.0 |
| 20260504032252 | 13 | 181 | 0.0 | 0.0 | 0.00 | 0.05 | 0.05 | 57 | 1010.1 |
| 20260504031752 | 13 | 157 | 0.0 | 0.0 | 0.00 | 0.05 | 0.05 | 57 | 1010.1 |
| 20260504031251 | 13 | 169 | 0.0 | 0.0 | 0.00 | 0.05 | 0.05 | 57 | 1010.1 |
| 20260504030751 | 13 | 155 | 0.0 | 0.0 | 0.00 | 0.05 | 0.05 | 57 | 1010.2 |
| 20260504030251 | 14 | 158 | 0.0 | 0.0 | 0.00 | 0.05 | 0.05 | 57 | 1010.3 |
| 20260504025751 | 14 | 148 | 0.0 | 0.0 | 0.00 | 0.05 | 0.05 | 57 | 1010.3 |
| 20260504025250 | 14 | 169 | 0.0 | 0.0 | 0.00 | 0.05 | 0.05 | 56 | 1010.4 |
| 20260504024750 | 14 | 172 | 0.0 | 0.0 | 0.00 | 0.05 | 0.05 | 56 | 1010.4 |
| 20260504024250 | 14 | 150 | 0.0 | 0.0 | 0.00 | 0.05 | 0.05 | 56 | 1010.2 |
| 20260504023749 | 14 | 155 | 0.0 | 0.0 | 0.00 | 0.05 | 0.05 | 56 | 1010.1 |
| 20260504023249 | 14 | 212 | 0.0 | 0.0 | 0.00 | 0.05 | 0.05 | 56 | 1010.1 |
| 20260504022749 | 14 | 183 | 0.0 | 0.0 | 0.00 | 0.05 | 0.05 | 56 | 1010.0 |
| 20260504022249 | 14 | 194 | 0.0 | 0.0 | 0.00 | 0.05 | 0.05 | 56 | 1010.0 |
| 20260504021748 | 14 | 139 | 0.0 | 0.0 | 0.00 | 0.05 | 0.05 | 56 | 1010.1 |
| 20260504021248 | 14 | 179 | 0.0 | 0.0 | 0.00 | 0.05 | 0.05 | 56 | 1010.1 |
| 20260504020748 | 14 | 129 | 0.0 | 0.0 | 0.00 | 0.05 | 0.05 | 55 | 1010.1 |
| 20260504020247 | 14 | 165 | 0.0 | 0.0 | 0.00 | 0.05 | 0.05 | 55 | 1010.1 |
| 20260504015747 | 14 | 173 | 0.0 | 0.0 | 0.00 | 0.05 | 0.05 | 55 | 1010.1 |
| 20260504015247 | 15 | 157 | 0.0 | 0.0 | 0.00 | 0.05 | 0.05 | 55 | 1010.1 |
| 20260504014746 | 15 | 166 | 0.0 | 0.0 | 0.00 | 0.05 | 0.05 | 55 | 1010.2 |
| 20260504014246 | 15 | 158 | 0.0 | 0.0 | 0.00 | 0.05 | 0.05 | 55 | 1010.2 |
| 20260504013746 | 15 | 163 | 0.0 | 0.0 | 0.00 | 0.05 | 0.05 | 55 | 1010.3 |
| 20260504013246 | 15 | 153 | 0.0 | 0.0 | 0.00 | 0.05 | 0.05 | 54 | 1010.3 |
| 20260504012745 | 15 | 178 | 0.0 | 0.0 | 0.00 | 0.05 | 0.05 | 54 | 1010.1 |
| 20260504012245 | 15 | 153 | 0.0 | 0.0 | 0.00 | 0.05 | 0.05 | 54 | 1010.0 |
| 20260504011745 | 15 | 171 | 0.0 | 0.0 | 0.00 | 0.05 | 0.05 | 54 | 1010.0 |
| 20260504011244 | 15 | 182 | 0.0 | 0.0 | 0.00 | 0.05 | 0.05 | 54 | 1010.0 |
| 20260504010744 | 15 | 182 | 0.0 | 0.0 | 0.00 | 0.05 | 0.05 | 54 | 1010.0 |
| 20260504010244 | 15 | 207 | 0.0 | 0.0 | 0.00 | 0.05 | 0.05 | 54 | 1009.9 |
| 20260504005744 | 15 | 254 | 0.0 | 0.0 | 0.00 | 0.05 | 0.05 | 54 | 1009.8 |
| 20260504005243 | 15 | 157 | 0.0 | 0.0 | 0.00 | 0.05 | 0.05 | 54 | 1009.8 |
| 20260504004743 | 15 | 164 | 0.0 | 0.0 | 0.00 | 0.05 | 0.05 | 54 | 1009.7 |
| 20260504004243 | 15 | 213 | 0.0 | 0.0 | 0.00 | 0.05 | 0.05 | 54 | 1009.5 |
| 20260504003742 | 15 | 167 | 0.0 | 0.0 | 0.00 | 0.05 | 0.05 | 54 | 1009.6 |
| 20260504003242 | 15 | 149 | 0.0 | 0.0 | 0.00 | 0.05 | 0.05 | 53 | 1009.7 |
| 20260504002742 | 15 | 147 | 0.0 | 0.0 | 0.00 | 0.05 | 0.05 | 52 | 1009.9 |
| 20260504002242 | 16 | 167 | 0.0 | 0.0 | 0.00 | 0.05 | 0.05 | 51 | 1010.4 |
| 20260504001741 | 16 | 198 | 0.0 | 0.0 | 0.00 | 0.05 | 0.05 | 50 | 1010.7 |
| 20260504001241 | 16 | 144 | 0.0 | 0.0 | 0.00 | 0.05 | 0.05 | 50 | 1010.7 |
| 20260504000741 | 16 | 202 | 0.0 | 0.0 | 0.00 | 0.05 | 0.05 | 50 | 1010.8 |
| 20260504000241 | 16 | 188 | 0.0 | 0.0 | 0.00 | 0.05 | 0.05 | 49 | 1010.8 |
| 20260503235740 | 16 | 140 | 0.0 | 0.0 | 0.00 | 0.05 | 0.05 | 49 | 1010.6 |
| 20260503235240 | 16 | 194 | 0.0 | 0.0 | 0.00 | 0.05 | 0.05 | 49 | 1010.8 |
| 20260503234739 | 16 | 161 | 0.0 | 0.0 | 0.00 | 0.05 | 0.05 | 49 | 1010.9 |
| 20260503234239 | 16 | 157 | 0.0 | 0.0 | 0.00 | 0.05 | 0.05 | 48 | 1011.1 |
| 20260503233739 | 16 | 186 | 0.0 | 0.0 | 0.00 | 0.05 | 0.05 | 49 | 1011.3 |
| 20260503233239 | 16 | 164 | 0.0 | 0.0 | 0.00 | 0.05 | 0.05 | 49 | 1011.4 |
| 20260503232738 | 16 | 201 | 0.0 | 0.0 | 0.00 | 0.05 | 0.05 | 49 | 1011.5 |
| 20260503232238 | 16 | 175 | 0.0 | 0.0 | 0.00 | 0.05 | 0.05 | 49 | 1011.5 |
| 20260503231738 | 16 | 189 | 0.0 | 0.0 | 0.00 | 0.05 | 0.05 | 49 | 1011.2 |
| 20260503231237 | 16 | 186 | 0.0 | 0.0 | 0.00 | 0.05 | 0.05 | 48 | 1010.9 |
| 20260503230737 | 16 | 178 | 0.0 | 0.0 | 0.00 | 0.05 | 0.05 | 48 | 1010.7 |
| 20260503230237 | 16 | 160 | 0.0 | 0.0 | 0.00 | 0.05 | 0.05 | 48 | 1010.8 |
| 20260503225737 | 16 | 173 | 0.0 | 0.0 | 0.00 | 0.05 | 0.05 | 48 | 1010.8 |
| 20260503225236 | 16 | 149 | 0.0 | 0.0 | 0.00 | 0.05 | 0.05 | 48 | 1010.9 |
| 20260503224736 | 16 | 194 | 0.0 | 0.0 | 0.00 | 0.05 | 0.05 | 48 | 1010.9 |
| 20260503224236 | 16 | 178 | 0.0 | 0.0 | 0.00 | 0.05 | 0.05 | 47 | 1011.0 |
| 20260503223735 | 16 | 198 | 0.0 | 0.0 | 0.00 | 0.05 | 0.05 | 47 | 1011.2 |
| 20260503223235 | 16 | 187 | 0.0 | 0.0 | 0.00 | 0.05 | 0.05 | 47 | 1011.1 |
| 20260503222735 | 16 | 223 | 0.0 | 0.0 | 0.00 | 0.05 | 0.05 | 47 | 1011.2 |
| 20260503222234 | 16 | 158 | 0.0 | 0.0 | 0.00 | 0.05 | 0.05 | 47 | 1011.2 |
| 20260503221734 | 16 | 162 | 0.0 | 0.0 | 0.00 | 0.05 | 0.05 | 47 | 1010.9 |
| 20260503221234 | 16 | 177 | 0.0 | 0.0 | 0.00 | 0.05 | 0.05 | 46 | 1011.2 |
| 20260503220734 | 16 | 192 | 0.0 | 0.0 | 0.00 | 0.05 | 0.05 | 46 | 1011.1 |
| 20260503220233 | 16 | 178 | 0.0 | 0.0 | 0.00 | 0.05 | 0.05 | 46 | 1011.1 |
| 20260503215733 | 16 | 213 | 0.0 | 0.0 | 0.00 | 0.05 | 0.05 | 46 | 1011.5 |
| 20260503215233 | 16 | 205 | 0.0 | 0.0 | 0.00 | 0.05 | 0.05 | 45 | 1011.4 |
| 20260503214732 | 16 | 221 | 0.0 | 0.0 | 0.00 | 0.05 | 0.05 | 45 | 1011.2 |
| 20260503214232 | 16 | 186 | 0.0 | 0.0 | 0.00 | 0.05 | 0.05 | 46 | 1011.3 |
| 20260503213732 | 16 | 200 | 0.0 | 0.0 | 0.00 | 0.05 | 0.05 | 46 | 1011.5 |
| 20260503213232 | 16 | 189 | 0.0 | 0.0 | 0.00 | 0.05 | 0.05 | 46 | 1011.5 |
| 20260503212731 | 16 | 194 | 0.0 | 0.0 | 0.00 | 0.05 | 0.05 | 46 | 1011.6 |
| 20260503212231 | 16 | 176 | 0.0 | 0.0 | 0.00 | 0.05 | 0.05 | 46 | 1011.6 |
| 20260503211731 | 16 | 182 | 0.0 | 0.0 | 0.00 | 0.05 | 0.05 | 45 | 1011.6 |
| 20260503211230 | 16 | 188 | 0.0 | 0.0 | 0.00 | 0.05 | 0.05 | 46 | 1011.8 |
| 20260503210730 | 16 | 227 | 0.0 | 0.0 | 0.00 | 0.05 | 0.05 | 45 | 1012.0 |
| 20260503210230 | 16 | 206 | 0.0 | 0.0 | 0.00 | 0.05 | 0.05 | 45 | 1012.2 |
| 20260503205730 | 16 | 164 | 0.0 | 0.0 | 0.00 | 0.05 | 0.05 | 44 | 1012.3 |
| 20260503205229 | 16 | 214 | 0.0 | 0.0 | 0.00 | 0.05 | 0.05 | 45 | 1012.5 |
| 20260503204729 | 16 | 196 | 0.0 | 0.0 | 0.00 | 0.05 | 0.05 | 44 | 1012.7 |
| 20260503204229 | 16 | 186 | 0.0 | 0.0 | 0.00 | 0.05 | 0.05 | 44 | 1013.1 |
| 20260503203728 | 16 | 303 | 0.0 | 0.0 | 0.00 | 0.05 | 0.05 | 43 | 1013.4 |
| 20260503203228 | 16 | 209 | 0.0 | 0.0 | 0.00 | 0.05 | 0.05 | 43 | 1013.4 |
| 20260503202728 | 16 | 290 | 0.0 | 0.0 | 0.00 | 0.05 | 0.05 | 43 | 1013.4 |
| 20260503202227 | 16 | 213 | 0.0 | 0.0 | 0.00 | 0.05 | 0.05 | 43 | 1013.7 |
| 20260503201727 | 16 | 205 | 0.0 | 0.0 | 0.00 | 0.05 | 0.05 | 43 | 1013.6 |
| 20260503201227 | 16 | 249 | 0.0 | 0.0 | 0.00 | 0.05 | 0.05 | 42 | 1013.5 |
| 20260503200727 | 16 | 202 | 0.0 | 0.0 | 0.00 | 0.05 | 0.05 | 42 | 1013.4 |
| 20260503200226 | 16 | 208 | 0.0 | 0.0 | 0.00 | 0.05 | 0.05 | 42 | 1013.5 |
| 20260503195726 | 16 | 221 | 0.0 | 0.0 | 0.00 | 0.05 | 0.05 | 42 | 1013.4 |
| 20260503195226 | 16 | 242 | 0.0 | 0.0 | 0.00 | 0.05 | 0.05 | 42 | 1013.4 |
| 20260503194726 | 16 | 218 | 0.0 | 0.0 | 0.00 | 0.05 | 0.05 | 42 | 1013.6 |
| 20260503194225 | 16 | 223 | 0.0 | 0.0 | 0.00 | 0.05 | 0.05 | 43 | 1013.5 |
| 20260503193725 | 16 | 169 | 0.0 | 0.0 | 0.00 | 0.05 | 0.05 | 43 | 1013.8 |
| 20260503193225 | 16 | 230 | 0.0 | 0.0 | 0.00 | 0.05 | 0.05 | 43 | 1013.7 |
| 20260503192724 | 16 | 219 | 0.0 | 0.0 | 0.03 | 0.05 | 0.05 | 43 | 1013.6 |
| 20260503192224 | 16 | 227 | 0.0 | 0.0 | 0.03 | 0.05 | 0.05 | 43 | 1014.1 |
| 20260503191724 | 16 | 203 | 0.0 | 0.0 | 0.03 | 0.05 | 0.05 | 43 | 1013.9 |
| 20260503191223 | 16 | 192 | 0.0 | 0.0 | 0.03 | 0.05 | 0.05 | 43 | 1014.0 |
| 20260503190723 | 16 | 100 | 0.0 | 0.0 | 0.03 | 0.08 | 0.05 | 43 | 1014.0 |
| 20260503190223 | 16 | 175 | 0.0 | 0.0 | 0.03 | 0.08 | 0.05 | 43 | 1014.0 |
| 20260503185723 | 16 | 225 | 0.0 | 0.0 | 0.03 | 0.08 | 0.05 | 43 | 1014.3 |
| 20260503185222 | 15 | 186 | 0.0 | 0.0 | 0.03 | 0.08 | 0.05 | 44 | 1014.5 |
| 20260503184722 | 16 | 217 | 0.0 | 0.0 | 0.03 | 0.08 | 0.05 | 43 | 1014.6 |
| 20260503184222 | 15 | 157 | 0.0 | 0.0 | 0.03 | 0.08 | 0.05 | 43 | 1014.6 |
| 20260503183721 | 15 | 215 | 0.0 | 0.0 | 0.03 | 0.08 | 0.05 | 43 | 1014.7 |
| 20260503183221 | 15 | 185 | 0.0 | 0.0 | 0.03 | 0.08 | 0.05 | 43 | 1014.8 |
| 20260503182721 | 15 | 215 | 0.0 | 0.0 | 0.00 | 0.05 | 0.03 | 43 | 1015.1 |
| 20260503182220 | 15 | 273 | 0.0 | 0.0 | 0.00 | 0.05 | 0.03 | 42 | 1015.2 |
| 20260503181720 | 15 | 162 | 0.0 | 0.0 | 0.00 | 0.05 | 0.03 | 42 | 1015.4 |
| 20260503181220 | 15 | 238 | 0.0 | 0.0 | 0.00 | 0.05 | 0.03 | 43 | 1015.4 |
| 20260503180720 | 15 | 201 | 0.0 | 0.0 | 0.00 | 0.05 | 0.03 | 44 | 1015.5 |
| 20260503180219 | 15 | 192 | 0.0 | 0.0 | 0.00 | 0.05 | 0.03 | 43 | 1015.7 |
| 20260503175719 | 15 | 210 | 0.0 | 0.0 | 0.00 | 0.05 | 0.03 | 41 | 1015.8 |
| 20260503175219 | 15 | 213 | 0.0 | 0.0 | 0.00 | 0.05 | 0.03 | 43 | 1015.8 |
| 20260503174718 | 15 | 227 | 0.0 | 0.0 | 0.00 | 0.05 | 0.03 | 43 | 1015.9 |
| 20260503174218 | 15 | 228 | 0.0 | 0.0 | 0.00 | 0.05 | 0.03 | 43 | 1016.1 |
| 20260503173718 | 15 | 265 | 0.0 | 0.0 | 0.00 | 0.05 | 0.03 | 42 | 1016.2 |
| 20260503173218 | 15 | 266 | 0.0 | 0.0 | 0.00 | 0.05 | 0.03 | 43 | 1016.3 |
| 20260503172717 | 15 | 241 | 0.0 | 0.0 | 0.00 | 0.05 | 0.03 | 42 | 1016.4 |
| 20260503172217 | 15 | 229 | 0.0 | 0.0 | 0.00 | 0.05 | 0.03 | 42 | 1016.2 |
| 20260503171717 | 15 | 217 | 0.0 | 0.0 | 0.00 | 0.05 | 0.03 | 43 | 1016.4 |
| 20260503171216 | 15 | 232 | 0.0 | 0.0 | 0.00 | 0.05 | 0.03 | 43 | 1016.5 |
| 20260503170716 | 15 | 243 | 0.0 | 0.0 | 0.00 | 0.05 | 0.03 | 43 | 1016.4 |
| 20260503170216 | 15 | 175 | 0.0 | 0.0 | 0.00 | 0.05 | 0.03 | 43 | 1016.5 |
| 20260503160212 | 13 | 195 | 0.0 | 0.0 | 0.00 | 0.05 | 0.03 | 44 | 1017.4 |
| 20260503150709 | 13 | 205 | 0.0 | 0.0 | 0.00 | 0.08 | 0.03 | 45 | 1018.0 |
| 20260503150209 | 12 | 172 | 0.0 | 0.0 | 0.00 | 0.08 | 0.03 | 44 | 1018.0 |
| 20260503140205 | 11 | 252 | 0.0 | 0.0 | 0.00 | 0.08 | 0.03 | 50 | 1018.3 |
| 20260503131202 | 8 | 208 | 0.0 | 0.0 | 0.00 | 0.08 | 0.03 | 58 | 1018.3 |
| 20260503130702 | 8 | 229 | 0.0 | 0.0 | 0.00 | 0.08 | 0.03 | 59 | 1018.5 |
| 20260503130202 | 7 | 196 | 0.0 | 0.0 | 0.00 | 0.08 | 0.03 | 59 | 1018.5 |
| 20260503120158 | 5 | 139 | 0.0 | 0.0 | 0.00 | 0.08 | 0.03 | 69 | 1018.3 |
| 20260503110655 | 2 | 180 | 0.0 | 0.0 | 0.00 | 0.08 | 0.03 | 77 | 1017.8 |
| 20260503110155 | 2 | 180 | 0.0 | 0.0 | 0.00 | 0.08 | 0.03 | 77 | 1017.8 |
| 20260503100151 | 3 | 179 | 0.0 | 0.0 | 0.00 | 0.08 | 0.03 | 76 | 1017.6 |
| 20260503090148 | 3 | 192 | 0.0 | 0.0 | 0.00 | 0.08 | 0.03 | 77 | 1017.5 |
| 20260503081145 | 3 | 180 | 0.0 | 0.0 | 0.03 | 0.08 | 0.03 | 78 | 1017.4 |
| 20260503080644 | 3 | 176 | 0.0 | 0.0 | 0.03 | 0.08 | 0.03 | 79 | 1017.5 |
| 20260503080144 | 3 | 175 | 0.0 | 0.0 | 0.03 | 0.08 | 0.03 | 79 | 1017.4 |
| 20260503072642 | 3 | 174 | 0.0 | 0.0 | 0.00 | 0.05 | 0.00 | 79 | 1017.3 |
| 20260503072142 | 3 | 174 | 0.0 | 0.0 | 0.00 | 0.05 | 0.00 | 79 | 1017.4 |
| 20260503071642 | 3 | 174 | 0.0 | 0.0 | 0.00 | 0.05 | 0.00 | 78 | 1017.4 |
| 20260503071141 | 3 | 174 | 0.0 | 0.0 | 0.00 | 0.05 | 0.00 | 77 | 1017.5 |
| 20260503070641 | 4 | 174 | 0.0 | 0.0 | 0.00 | 0.05 | 0.00 | 77 | 1017.5 |
| 20260503070141 | 4 | 174 | 0.0 | 0.0 | 0.00 | 0.05 | 0.00 | 76 | 1017.5 |
| 20260503060137 | 3 | 137 | 0.0 | 0.0 | 0.00 | 0.08 | 0.00 | 78 | 1017.8 |
| 20260503054636 | 4 | 113 | 0.0 | 0.0 | 0.00 | 0.08 | 0.00 | 78 | 1017.9 |
| 20260503054136 | 4 | 92 | 0.0 | 0.0 | 0.00 | 0.08 | 0.00 | 78 | 1017.9 |
| 20260503053636 | 4 | 58 | 0.0 | 0.0 | 0.00 | 0.08 | 0.00 | 77 | 1017.9 |
| 20260503053135 | 4 | 41 | 0.0 | 0.0 | 0.00 | 0.08 | 0.00 | 77 | 1017.9 |
| 20260503052635 | 4 | 39 | 0.0 | 0.0 | 0.00 | 0.08 | 0.00 | 77 | 1018.0 |
| 20260503052135 | 5 | 38 | 0.0 | 0.0 | 0.00 | 0.08 | 0.00 | 77 | 1018.1 |
| 20260503051635 | 5 | 22 | 0.0 | 0.0 | 0.00 | 0.08 | 0.00 | 76 | 1018.0 |
| 20260503051134 | 5 | 22 | 0.0 | 0.0 | 0.00 | 0.08 | 0.00 | 75 | 1018.0 |
| 20260503050634 | 5 | 21 | 0.0 | 0.0 | 0.00 | 0.08 | 0.00 | 74 | 1018.0 |
| 20260503050134 | 5 | 19 | 0.0 | 0.0 | 0.00 | 0.08 | 0.00 | 73 | 1018.0 |
| 20260503045633 | 5 | 13 | 0.0 | 0.0 | 0.00 | 0.08 | 0.00 | 72 | 1018.0 |
| 20260503045133 | 5 | 13 | 0.0 | 0.0 | 0.00 | 0.08 | 0.00 | 70 | 1018.0 |
| 20260503044633 | 5 | 13 | 0.0 | 0.0 | 0.00 | 0.08 | 0.00 | 70 | 1018.1 |
| 20260503044132 | 6 | 13 | 0.0 | 0.0 | 0.00 | 0.08 | 0.00 | 69 | 1018.1 |
| 20260503043632 | 6 | 13 | 0.0 | 0.0 | 0.00 | 0.08 | 0.00 | 68 | 1018.1 |
| 20260503043132 | 6 | 13 | 0.0 | 0.0 | 0.00 | 0.08 | 0.00 | 67 | 1018.0 |
| 20260503042632 | 6 | 13 | 0.0 | 0.0 | 0.00 | 0.08 | 0.00 | 67 | 1017.9 |
| 20260503042131 | 6 | 13 | 0.0 | 0.0 | 0.00 | 0.08 | 0.00 | 66 | 1017.9 |
| 20260503041631 | 6 | 13 | 0.0 | 0.0 | 0.00 | 0.08 | 0.00 | 66 | 1017.9 |
| 20260503041131 | 6 | 13 | 0.0 | 0.0 | 0.00 | 0.08 | 0.00 | 67 | 1017.9 |
| 20260503040630 | 6 | 13 | 0.0 | 0.0 | 0.00 | 0.08 | 0.00 | 67 | 1017.9 |